Other Surface Observations
Issued by NWS

Home | Current Version | Previous Version | Text Only | Print | Product List | Glossary On
Versions: 1 2 3 4 5 6 7 8 9 10 11 12 13 14 15 16 17 18 19 20 21 22 23 24 25 26 27 28 29 30 31 32 33 34 35 36 37 38 39 40 41 42 43 44 45 46 47 48 49 50
000
SXUS52 KTAE 260018
OSOTAE
OSOTAE
North Florida/South Alabama/Southwest Georgia Weather Roundup
National Weather Service Tallahassee Florida
800 PM EDT FRI MAY 25 2018

Note: "fair" indicates few or no clouds below 12,000 feet with no
significant weather and/or obstructions to visibility.

!FLZ017-115-028-034-025-260100
...North Florida...

CITY           SKY/WX    TMP DP  RH WIND       PRES   REMARKS
TALLAHASSEE    MOCLDY    83  70  64 S9        29.94R
APALACHICOLA   FAIR      82  74  76 SW6       29.93F
PERRY          MOCLDY    83  74  75 CALM      29.95S
CROSS CITY     CLOUDY    73  72  96 SE9G18    29.98R
JACKSONVILLE   MOCLDY    80  70  71 SE15      29.97R
$$

!FLZ112-006-005-002-011-260100
...Florida Panhandle...

CITY           SKY/WX    TMP DP  RH WIND       PRES   REMARKS
MARIANNA       FAIR      85  70  60 W8        29.91R
BONIFAY        FAIR      81  71  71 SW3       29.94R
PANAMA CITY NW FAIR      81  69  67 S9        29.92R
TYNDALL AFB    FAIR      80  69  69 S8        29.93S
TYND DRONE APT NOT AVBL
DE FUNIAK SPR  FAIR      80  70  72 SW5       29.94R
EGLIN AFB      NOT AVBL
DESTIN         FAIR      82  70  66 SW6       29.92S
HURLBURT       PTCLDY    81  71  72 S8        29.91R
CRESTVIEW      FAIR      79  73  82 S3        29.94R
PENSACOLA      FAIR      80  70  71 S7        29.92R
$$

!ALZ063-066-260100
...South Alabama...

CITY           SKY/WX    TMP DP  RH WIND       PRES   REMARKS
DOTHAN         FAIR      81  68  64 W6        29.97R
OZARK CAIRNS   FAIR      79  71  76 W3        29.93R
FT RUCKER HELI CLOUDY    77  71  83 CALM      29.93R
RUCKER HELI 3  FAIR      75  72  89 CALM      29.93R
RUCKER HELI 2  FAIR      78  72  81 W3        29.92R
FLORALA APT    FAIR      80  71  74 CALM      29.94S
ANDALUSIA      FAIR      77  72  84 NW3       29.93S
TROY           MOCLDY    72  70  93 CALM      29.94F THUNDER
EUFALA         FAIR      81  74  79 E3        29.91R
MOBILE         MOCLDY    75  72  90 W5        29.94R
$$

!GAZ120>161-260100
...Southwest and South Central Georgia...

CITY           SKY/WX    TMP DP  RH WIND       PRES   REMARKS
THOMASVILLE    FAIR      81  70  69 S7        29.96R
BAINBRIDGE     CLOUDY    79  77  94 SW8       29.94R
MOODY AFB      FAIR      80  73  80 SE5       29.95R
VALDOSTA       FAIR      79  74  84 E5        29.95R
MOULTRIE       FAIR      79  72  78 S5        29.95S
BLAKELY        FAIR      81  72  74 CALM      29.93R
ALBANY         TSTM      73  69  87 NE13G26   29.96R FOG
TIFTON         FAIR      79  70  72 SE7       29.96
FITZGERALD     FAIR      80  74  81 SE3       29.98S
CORDELE        HVY RAIN  72  71  97 CALM      29.96F
AMERICUS       FAIR      73  64  73 SE3       29.96F
HOMERVILLE     FAIR      79  72  78 CALM      29.97R
$$

!GMZ750-755-770-775-260100
...Coastal and Buoy Obs...

STATION/POSITION TIME  TEMP    WIND        PRES    VSBY  WAVE
                       AIR SEA DIR/SP/G                  HT/PER
                 (UTC) (F)     (DEG/KT/KT) (MB)    (MI)  (FT/S)
KEATON BEACH     0000   81      CALM  /  2 1014.1R
CEDAR KEY        0000   78     170/ 14/ 16 1015.1R
C TOWER          0000   79     180/  5/  6 1013.4F
APALACHICOLA BUO NOT AVBL
PANAMA CITY BUOY 2350   80 82  120/  6/  8 1013.2F         2/ 8
MOBILE BUOY      0000      87  150/  6/ 10 1013.2
ORANGE BCH AL BU 0000   81        CALM     1013.3
$$




USA.gov is the U.S. government's official web portal to all federal, state and local government web resources and services.